Home > Weather > Port Moresby > Past weeks

Flag for Papua New Guinea Past Weather in Port Moresby, Papua New Guinea — Yesterday and Last 2 Weeks

Now
81 °F

Clear.


Feels Like: 84 °F
Forecast: 77 / 88 °F
Wind: 21 mph from Southeast

Location: Moresby

Current Time: Jul 25, 2016 at 10:06:32 PM

Latest Report: Jul 25, 2016 at 9:00 PM


Visibility: 10 mi

Pressure: 29.77 "Hg

Humidity: 70%

Dew Point: 70 °F

Location of Port MoresbyLocation

Past Weather in Port Moresby — Graph

°F

Port Moresby Temperature Yesterday

Maximum temperature yesterday: 88 °F (at 12:00 PM)
Minimum temperature yesterday: 77 °F (at 6:00 AM)
Average temperature yesterday: 83 °F

High & Low Weather Summary for the Past Weeks

 TemperatureHumidityPressure
High90 °F (Jul 18, 11:00 AM)100% (Jul 11, 4:00 AM)29.89 "Hg (Jul 11, 4:00 AM)
Low59 °F (Jul 17, 4:00 AM)52% (Jul 22, 1:00 PM)29.71 "Hg (Jul 21, 3:00 PM)
Average82 °F77%29.79 "Hg
* Reported Jul 10 9:00 PM — Jul 25 9:00 PM, Port Moresby, Weather by CustomWeather, © 2016

Note: Actual official high and low records may vary slightly from our data, if they occured in-between our weather recording intervals... More about our weather records

Advertising

Port Moresby Weather History for the Previous 24 Hours

Scroll right to see more
 ConditionsComfort  
Time TempWeatherWind HumidityBarometerVisibility
9:00 PM
Mon, Jul 25
81 °FClear.21 mph70%29.77 "Hg10 mi
8:00 PM81 °FPassing clouds.21 mph74%29.77 "HgN/A
7:00 PM81 °FPassing clouds.23 mph74%29.74 "HgN/A
6:00 PM81 °FBroken clouds.25 mph79%29.74 "HgN/A
5:00 PM82 °FBroken clouds.23 mph70%29.71 "HgN/A
4:00 PM86 °FBroken clouds.17 mph62%29.74 "HgN/A
3:00 PM88 °FScattered clouds.17 mph62%29.71 "HgN/A
2:00 PM88 °FBroken clouds.14 mph62%29.74 "HgN/A
1:00 PM90 °FScattered clouds.14 mph55%29.77 "HgN/A
12:00 PM88 °FScattered clouds.14 mph55%29.77 "HgN/A
11:00 AM88 °FScattered clouds.14 mph52%29.80 "HgN/A
10:00 AM84 °FScattered clouds.14 mph79%29.83 "HgN/A
9:00 AM82 °FPartly sunny.14 mph66%29.83 "HgN/A
7:00 AM79 °FMore clouds than sun.14 mph74%29.77 "HgN/A
6:00 AM79 °FMostly cloudy.9 mph74%29.77 "HgN/A
4:00 AM79 °FPartly cloudy.16 mph79%29.77 "HgN/A
3:00 AM79 °FPartly cloudy.9 mph79%29.77 "HgN/A
2:00 AM79 °FPassing clouds.6 mph79%29.77 "HgN/A
1:00 AM79 °FPassing clouds.12 mph74%29.80 "HgN/A
12:00 AM79 °FPassing clouds.12 mph74%29.80 "HgN/A
11:00 PM
Sun, Jul 24
81 °FPassing clouds.14 mph70%29.80 "HgN/A
10:00 PM81 °FPassing clouds.9 mph74%29.80 "HgN/A
Weather by CustomWeather, © 2016

See weather overviewHow to use our weather pages